RYR1963 EDJA-LDZD

Flight info

Callsign RYR1963
Flight time 0h 56m
Altitude 37000
Route KPT4B KPT Z999 BEMKI L607 ELMEM N606 GIRIS DCT NIVAS DCT BADOP DCT BABAG DCT PEVAL DCT NAKIT DCT PUL N606 LOS LOS2Y
Aircraft B38M/M-SDE1FGHILORVWXY/HB1

Departure

Time 2026-05-07 13:09
Airport Memmingen Allgau Airport (EDJA)

Arrival

Time 2026-05-07 14:06
Airport Zadar Airport (LDZD)
Time Latitude Longitude Altitude Speed Heading
2026-05-07 12:47 47.98865 10.23234 2082 ft 0 kts 49°
2026-05-07 13:02 47.98863 10.23230 2082 ft 3 kts 47°
2026-05-07 13:03 47.98844 10.23212 2082 ft 4 kts 355°
2026-05-07 13:03 47.98829 10.23229 2082 ft 4 kts 287°
2026-05-07 13:03 47.98826 10.23265 2083 ft 4 kts 267°
2026-05-07 13:03 47.98832 10.23304 2083 ft 4 kts 248°
2026-05-07 13:04 47.98839 10.23330 2083 ft 0 kts 251°
2026-05-07 13:06 47.98837 10.23323 2083 ft 2 kts 250°
2026-05-07 13:06 47.98826 10.23275 2083 ft 9 kts 250°
2026-05-07 13:06 47.98793 10.23135 2082 ft 18 kts 251°
2026-05-07 13:06 47.98743 10.22954 2079 ft 20 kts 231°
2026-05-07 13:07 47.98696 10.22762 2078 ft 18 kts 251°
2026-05-07 13:07 47.98593 10.22716 2083 ft 16 kts 180°
2026-05-07 13:07 47.98493 10.22670 2086 ft 16 kts 230°
2026-05-07 13:07 47.98413 10.22553 2090 ft 17 kts 191°
2026-05-07 13:08 47.98367 10.22657 2089 ft 9 kts 59°
2026-05-07 13:08 47.98370 10.22666 2089 ft 2 kts 58°
2026-05-07 13:08 47.98400 10.22739 2088 ft 31 kts 59°
2026-05-07 13:08 47.98657 10.23383 2082 ft 111 kts 59°
2026-05-07 13:09 47.99170 10.24669 2079 ft 170 kts 60°
2026-05-07 13:09 47.99759 10.26225 2207 ft 187 kts 57°
2026-05-07 13:09 48.00434 10.27983 3018 ft 203 kts 57°
2026-05-07 13:09 48.01143 10.29771 4115 ft 200 kts 57°
2026-05-07 13:10 48.01912 10.31636 4768 ft 222 kts 57°
2026-05-07 13:10 48.02749 10.33710 5323 ft 244 kts 58°
2026-05-07 13:10 48.03580 10.36003 6173 ft 249 kts 68°
2026-05-07 13:10 48.03898 10.38523 7209 ft 252 kts 95°
2026-05-07 13:11 48.03367 10.41015 8044 ft 254 kts 126°
2026-05-07 13:11 48.02136 10.42867 8942 ft 253 kts 152°
2026-05-07 13:11 48.00504 10.43720 9848 ft 248 kts 179°
2026-05-07 13:11 47.98817 10.43422 10656 ft 245 kts 204°
2026-05-07 13:12 47.97251 10.42327 11294 ft 257 kts 204°
2026-05-07 13:12 47.95428 10.41749 11757 ft 279 kts 191°
2026-05-07 13:12 47.93456 10.41230 12185 ft 298 kts 194°
2026-05-07 13:12 47.91361 10.40595 12645 ft 315 kts 195°
2026-05-07 13:13 47.89169 10.39894 13237 ft 326 kts 195°
2026-05-07 13:13 47.86949 10.39164 14093 ft 328 kts 195°
2026-05-07 13:13 47.84700 10.38412 14760 ft 334 kts 195°
2026-05-07 13:13 47.82421 10.37642 15464 ft 338 kts 195°
2026-05-07 13:14 47.80113 10.36857 16128 ft 343 kts 195°
2026-05-07 13:14 47.77772 10.36061 16798 ft 347 kts 195°
2026-05-07 13:14 47.75400 10.35254 17444 ft 352 kts 195°
2026-05-07 13:14 47.72968 10.34639 18083 ft 357 kts 191°
2026-05-07 13:15 47.70501 10.34062 18651 ft 361 kts 192°
2026-05-07 13:15 47.68004 10.33464 19211 ft 365 kts 192°
2026-05-07 13:15 47.65492 10.32856 19770 ft 368 kts 192°
2026-05-07 13:15 47.62957 10.32240 20313 ft 371 kts 192°
2026-05-07 13:16 47.60397 10.31617 20871 ft 374 kts 192°
2026-05-07 13:16 47.57795 10.31258 21390 ft 380 kts 178°
2026-05-07 13:16 47.55199 10.32106 21976 ft 387 kts 160°
2026-05-07 13:16 47.52850 10.34103 22485 ft 393 kts 145°
2026-05-07 13:17 47.50625 10.36470 23016 ft 396 kts 146°
2026-05-07 13:17 47.48381 10.38876 23541 ft 400 kts 145°
2026-05-07 13:17 47.46131 10.41312 23991 ft 403 kts 145°
2026-05-07 13:17 47.43870 10.43773 24485 ft 405 kts 145°
2026-05-07 13:18 47.41594 10.46252 24957 ft 408 kts 145°
2026-05-07 13:18 47.39238 10.48602 25365 ft 410 kts 153°
2026-05-07 13:18 47.36722 10.50589 25815 ft 412 kts 153°
2026-05-07 13:18 47.34192 10.52606 26236 ft 415 kts 153°
2026-05-07 13:19 47.31680 10.54602 26663 ft 417 kts 153°
2026-05-07 13:19 47.29123 10.56630 27134 ft 417 kts 153°
2026-05-07 13:19 47.26561 10.58660 27582 ft 419 kts 153°
2026-05-07 13:19 47.23982 10.60700 27994 ft 422 kts 153°
2026-05-07 13:20 47.21388 10.62750 28401 ft 424 kts 153°
2026-05-07 13:20 47.18785 10.64806 28787 ft 426 kts 153°
2026-05-07 13:20 47.16110 10.66694 29180 ft 427 kts 161°
2026-05-07 13:20 47.13318 10.68212 29549 ft 429 kts 161°
2026-05-07 13:21 47.10517 10.69761 29966 ft 431 kts 161°
2026-05-07 13:21 47.07703 10.71304 30271 ft 433 kts 161°
2026-05-07 13:21 47.04872 10.72855 30570 ft 435 kts 161°
2026-05-07 13:21 47.02039 10.74426 30973 ft 434 kts 161°
2026-05-07 13:22 46.99217 10.76026 31303 ft 437 kts 162°
2026-05-07 13:22 46.96372 10.77632 31548 ft 440 kts 162°
2026-05-07 13:22 46.93509 10.79245 31844 ft 442 kts 162°
2026-05-07 13:22 46.90634 10.80863 32115 ft 444 kts 162°
2026-05-07 13:23 46.87740 10.82488 32372 ft 446 kts 162°
2026-05-07 13:23 46.84835 10.84119 32647 ft 449 kts 162°
2026-05-07 13:23 46.81910 10.85758 32906 ft 451 kts 163°
2026-05-07 13:23 46.78992 10.87489 33159 ft 456 kts 156°
2026-05-07 13:24 46.76373 10.90150 33484 ft 464 kts 140°
2026-05-07 13:24 46.74146 10.93593 33784 ft 467 kts 136°
2026-05-07 13:24 46.71945 10.97094 34073 ft 469 kts 136°
2026-05-07 13:24 46.69759 11.00619 34338 ft 470 kts 136°
2026-05-07 13:25 46.67577 11.04165 34549 ft 471 kts 136°
2026-05-07 13:25 46.65394 11.07727 34814 ft 471 kts 136°
2026-05-07 13:25 46.63218 11.11276 35098 ft 470 kts 136°
2026-05-07 13:25 46.61037 11.14831 35209 ft 472 kts 136°
2026-05-07 13:26 46.58848 11.18394 35432 ft 472 kts 136°
2026-05-07 13:26 46.56664 11.21945 35722 ft 471 kts 136°
2026-05-07 13:26 46.54476 11.25496 36003 ft 471 kts 136°
2026-05-07 13:26 46.52293 11.29036 36296 ft 471 kts 136°
2026-05-07 13:27 46.50106 11.32576 36565 ft 471 kts 136°
2026-05-07 13:27 46.47920 11.36112 36824 ft 470 kts 136°
2026-05-07 13:27 46.45736 11.39639 36945 ft 471 kts 136°
2026-05-07 13:27 46.43549 11.43167 36927 ft 469 kts 136°
2026-05-07 13:28 46.39187 11.50189 36963 ft 469 kts 137°
2026-05-07 13:28 46.34824 11.57194 36978 ft 469 kts 137°
2026-05-07 13:29 46.30449 11.64200 36976 ft 469 kts 137°
2026-05-07 13:29 46.26072 11.71191 37010 ft 470 kts 137°
2026-05-07 13:30 46.21713 11.78138 36955 ft 468 kts 137°
2026-05-07 13:30 46.17338 11.85089 36982 ft 468 kts 137°
2026-05-07 13:31 46.12951 11.92044 36961 ft 468 kts 137°
2026-05-07 13:31 46.08560 11.98989 36943 ft 469 kts 137°
2026-05-07 13:32 46.04913 12.04740 36983 ft 469 kts 137°
2026-05-07 13:32 46.00510 12.11670 36976 ft 468 kts 137°
2026-05-07 13:33 45.96109 12.18581 36963 ft 468 kts 137°
2026-05-07 13:33 45.91704 12.25482 36973 ft 469 kts 138°
2026-05-07 13:34 45.85277 12.36140 36967 ft 471 kts 136°
2026-05-07 13:35 45.80999 12.43255 36968 ft 471 kts 136°
2026-05-07 13:35 45.76715 12.50360 36969 ft 471 kts 136°
2026-05-07 13:36 45.72427 12.57455 36963 ft 471 kts 136°
2026-05-07 13:36 45.68135 12.64535 36955 ft 471 kts 136°
2026-05-07 13:37 45.63845 12.71597 36953 ft 470 kts 137°
2026-05-07 13:37 45.61721 12.75086 36644 ft 462 kts 137°
2026-05-07 13:37 45.59616 12.78539 36103 ft 460 kts 137°
2026-05-07 13:37 45.57523 12.81968 35582 ft 457 kts 137°
2026-05-07 13:38 45.55438 12.85380 35082 ft 454 kts 137°
2026-05-07 13:38 45.53367 12.88766 34592 ft 452 kts 138°
2026-05-07 13:38 45.51302 12.92136 34104 ft 450 kts 138°
2026-05-07 13:38 45.49248 12.95488 33510 ft 448 kts 138°
2026-05-07 13:39 45.47202 12.98822 32990 ft 445 kts 139°
2026-05-07 13:39 45.45174 13.02134 32500 ft 442 kts 139°
2026-05-07 13:39 45.43162 13.05417 32029 ft 438 kts 139°
2026-05-07 13:39 45.41165 13.08672 31570 ft 434 kts 139°
2026-05-07 13:40 45.39185 13.11893 31112 ft 431 kts 139°
2026-05-07 13:40 45.37201 13.15068 30641 ft 428 kts 140°
2026-05-07 13:40 45.35226 13.18225 30183 ft 426 kts 140°
2026-05-07 13:40 45.33265 13.21360 29694 ft 423 kts 140°
2026-05-07 13:41 45.31323 13.24471 29222 ft 420 kts 139°
2026-05-07 13:41 45.29408 13.27594 28704 ft 417 kts 139°
2026-05-07 13:41 45.27510 13.30680 28336 ft 411 kts 139°
2026-05-07 13:41 45.25640 13.33714 27947 ft 407 kts 139°
2026-05-07 13:42 45.23786 13.36720 27535 ft 403 kts 139°
2026-05-07 13:42 45.21950 13.39693 27146 ft 399 kts 139°
2026-05-07 13:42 45.20130 13.42637 26756 ft 395 kts 139°
2026-05-07 13:42 45.18321 13.45549 26330 ft 393 kts 140°
2026-05-07 13:43 45.16514 13.48444 25868 ft 391 kts 139°
2026-05-07 13:43 45.14720 13.51316 25530 ft 387 kts 139°
2026-05-07 13:43 45.12941 13.54161 25160 ft 384 kts 139°
2026-05-07 13:43 45.11173 13.56987 24761 ft 382 kts 140°
2026-05-07 13:44 45.09417 13.59790 24394 ft 379 kts 140°
2026-05-07 13:44 45.07673 13.62573 24024 ft 377 kts 140°
2026-05-07 13:44 45.05936 13.65341 23651 ft 376 kts 140°
2026-05-07 13:44 45.04203 13.68102 23220 ft 374 kts 140°
2026-05-07 13:45 45.02482 13.70838 22821 ft 371 kts 140°
2026-05-07 13:45 45.00770 13.73559 22448 ft 368 kts 139°
2026-05-07 13:45 44.99075 13.76249 22099 ft 365 kts 139°
2026-05-07 13:45 44.97393 13.78916 21739 ft 362 kts 139°
2026-05-07 13:46 44.95723 13.81562 21380 ft 360 kts 139°
2026-05-07 13:46 44.94063 13.84189 21025 ft 357 kts 139°
2026-05-07 13:46 44.92418 13.86792 20648 ft 354 kts 138°
2026-05-07 13:46 44.90781 13.89377 20311 ft 352 kts 138°
2026-05-07 13:47 44.89151 13.91932 19935 ft 350 kts 139°
2026-05-07 13:47 44.87501 13.94454 19553 ft 349 kts 139°
2026-05-07 13:47 44.85885 13.96926 19207 ft 346 kts 139°
2026-05-07 13:47 44.84258 13.99417 18862 ft 345 kts 138°
2026-05-07 13:48 44.82637 14.01896 18506 ft 343 kts 138°
2026-05-07 13:48 44.81021 14.04365 18124 ft 342 kts 138°
2026-05-07 13:48 44.79413 14.06821 17723 ft 340 kts 138°
2026-05-07 13:48 44.77815 14.09259 17352 ft 338 kts 137°
2026-05-07 13:49 44.76228 14.11679 17001 ft 335 kts 137°
2026-05-07 13:49 44.74654 14.14076 16650 ft 332 kts 137°
2026-05-07 13:49 44.73092 14.16454 16293 ft 330 kts 137°
2026-05-07 13:49 44.71539 14.18814 15950 ft 327 kts 137°
2026-05-07 13:50 44.69999 14.21155 15610 ft 325 kts 137°
2026-05-07 13:50 44.68467 14.23479 15257 ft 323 kts 137°
2026-05-07 13:50 44.66947 14.25785 14929 ft 321 kts 137°
2026-05-07 13:50 44.65433 14.28080 14584 ft 319 kts 137°
2026-05-07 13:51 44.63926 14.30361 14252 ft 318 kts 137°
2026-05-07 13:51 44.62426 14.32631 13913 ft 317 kts 136°
2026-05-07 13:51 44.60932 14.34890 13552 ft 315 kts 136°
2026-05-07 13:51 44.59443 14.37138 13190 ft 313 kts 136°
2026-05-07 13:52 44.57964 14.39370 12845 ft 311 kts 136°
2026-05-07 13:52 44.56495 14.41586 12521 ft 309 kts 136°
2026-05-07 13:52 44.55035 14.43786 12191 ft 307 kts 136°
2026-05-07 13:52 44.53586 14.45968 11851 ft 305 kts 136°
2026-05-07 13:53 44.52359 14.48392 11510 ft 309 kts 118°
2026-05-07 13:53 44.51503 14.51146 11202 ft 307 kts 117°
2026-05-07 13:53 44.50642 14.53866 10915 ft 305 kts 117°
2026-05-07 13:53 44.49786 14.56572 10600 ft 303 kts 117°
2026-05-07 13:54 44.48936 14.59264 10291 ft 301 kts 117°
2026-05-07 13:54 44.48093 14.61930 10068 ft 296 kts 117°
2026-05-07 13:54 44.47269 14.64536 9851 ft 291 kts 117°
2026-05-07 13:54 44.46451 14.67117 9524 ft 289 kts 117°
2026-05-07 13:55 44.45638 14.69684 9206 ft 287 kts 117°
2026-05-07 13:55 44.44830 14.72230 8905 ft 285 kts 117°
2026-05-07 13:55 44.44030 14.74752 8613 ft 282 kts 117°
2026-05-07 13:55 44.43235 14.77252 8322 ft 280 kts 117°
2026-05-07 13:56 44.42445 14.79734 8034 ft 278 kts 117°
2026-05-07 13:56 44.41662 14.82193 7747 ft 276 kts 117°
2026-05-07 13:56 44.40895 14.84600 7467 ft 274 kts 116°
2026-05-07 13:56 44.40122 14.87023 7180 ft 272 kts 116°
2026-05-07 13:57 44.39353 14.89432 6906 ft 270 kts 116°
2026-05-07 13:57 44.38587 14.91826 6618 ft 269 kts 116°
2026-05-07 13:57 44.37825 14.94207 6333 ft 268 kts 116°
2026-05-07 13:57 44.37072 14.96559 6136 ft 262 kts 116°
2026-05-07 13:58 44.36342 14.98839 6046 ft 252 kts 116°
2026-05-07 13:58 44.35528 15.00872 6054 ft 229 kts 133°
2026-05-07 13:58 44.34442 15.02406 5872 ft 217 kts 137°
2026-05-07 13:58 44.33384 15.03887 5565 ft 214 kts 137°
2026-05-07 13:59 44.32335 15.05344 5256 ft 211 kts 137°
2026-05-07 13:59 44.31301 15.06772 4991 ft 207 kts 137°
2026-05-07 13:59 44.30290 15.08164 4759 ft 201 kts 137°
2026-05-07 13:59 44.29309 15.09507 4549 ft 194 kts 137°
2026-05-07 14:00 44.28367 15.10797 4342 ft 184 kts 137°
2026-05-07 14:00 44.27477 15.12015 4133 ft 177 kts 137°
2026-05-07 14:00 44.26601 15.13213 3972 ft 176 kts 137°
2026-05-07 14:00 44.25728 15.14406 3795 ft 176 kts 137°
2026-05-07 14:01 44.24852 15.15600 3630 ft 176 kts 137°
2026-05-07 14:01 44.23977 15.16793 3502 ft 175 kts 137°
2026-05-07 14:01 44.23112 15.17973 3421 ft 173 kts 137°
2026-05-07 14:01 44.22247 15.19146 3230 ft 174 kts 137°
2026-05-07 14:02 44.21391 15.20317 2987 ft 170 kts 138°
2026-05-07 14:02 44.20575 15.21431 2745 ft 158 kts 137°
2026-05-07 14:02 44.19837 15.22439 2547 ft 141 kts 137°
2026-05-07 14:02 44.19141 15.23382 2366 ft 139 kts 136°
2026-05-07 14:03 44.18447 15.24324 2176 ft 139 kts 136°
2026-05-07 14:03 44.17760 15.25261 1963 ft 138 kts 135°
2026-05-07 14:03 44.17070 15.26196 1779 ft 139 kts 136°
2026-05-07 14:03 44.16379 15.27134 1616 ft 140 kts 136°
2026-05-07 14:04 44.15683 15.28083 1417 ft 139 kts 135°
2026-05-07 14:04 44.14997 15.29018 1210 ft 137 kts 135°
2026-05-07 14:04 44.14306 15.29936 1078 ft 138 kts 137°
2026-05-07 14:04 44.13617 15.30864 886 ft 136 kts 135°
2026-05-07 14:05 44.12980 15.31788 682 ft 129 kts 136°
2026-05-07 14:05 44.12333 15.32646 496 ft 130 kts 137°
2026-05-07 14:05 44.11683 15.33526 354 ft 130 kts 136°
2026-05-07 14:05 44.11065 15.34361 289 ft 111 kts 136°
2026-05-07 14:06 44.10634 15.34937 291 ft 59 kts 136°
2026-05-07 14:06 44.10459 15.35173 289 ft 16 kts 136°
2026-05-07 14:06 44.10362 15.35302 288 ft 21 kts 136°
2026-05-07 14:06 44.10253 15.35449 289 ft 22 kts 136°
2026-05-07 14:07 44.10138 15.35604 290 ft 23 kts 136°
2026-05-07 14:07 44.10021 15.35703 291 ft 17 kts 204°
2026-05-07 14:07 44.09929 15.35576 290 ft 20 kts 225°
2026-05-07 14:07 44.09789 15.35537 285 ft 24 kts 178°
2026-05-07 14:08 44.09626 15.35543 285 ft 15 kts 178°
2026-05-07 14:08 44.09533 15.35522 288 ft 7 kts 264°
2026-05-07 14:08 44.09567 15.35473 285 ft 11 kts 325°
2026-05-07 14:08 44.09601 15.35441 285 ft 3 kts 326°
2026-05-07 14:09 44.09605 15.35438 285 ft 0 kts 326°